Dewpoint
62 62 61 61 61 61 61 62 62 60 61 60 59 59 58 59 59 60 58 58 58 57 57 57 56 56 54 53 51 52 54 56 55 54 53 53 51 51 50 49 48 48 51 55 54 57 55 55 58 60 60 57 56 57 53 53 52 49 49 48 47 49 47 46 43 44 48 48 42 34 36 38 36 38 39 41 41 41 42 42 40 42 41 40 38
61 61 61 62 61 62 62 62 62 60 61 60 59 58 58 58 60 59 59 58 57 56 55 56 56 55 53 51 50 48 51 54 54 53 51 52 52 50 49 47 48 49 50 51 54 55 56 53 52 57 56 54 54 48 49 49 47 46 46 48 45 48 50 44 43 45 48 49 41 35 37 38 35 37 42 44 42 41 38 41 39 41 41 42 40
61 61 61 62 61 62 62 62 61 62 62 60 59 57 58 59 58 58 57 56 56 56 55 55 54 53 52 51 47 47 50 52 54 52 51 50 48 50 50 48 50 50 49 49 49 53 54 55 54 57 56 55 53 51 51 48 45 44 47 46 47 48 46 47 47 45 46 44 44 36 40 38 40 35 37 41 43 40 38 41 40 39 39 44 41
60 61 61 62 62 62 62 61 62 62 61 59 58 58 58 58 57 57 55 55 54 55 54 52 53 53 51 49 47 46 48 52 52 50 49 49 48 47 47 49 48 49 48 46 45 49 52 53 55 56 55 55 52 51 50 50 49 47 47 48 49 49 52 52 49 48 49 45 44 37 38 40 37 36 36 39 41 41 40 40 40 39 39 39 42
60 60 61 62 62 62 62 62 62 61 61 59 58 58 58 58 58 55 55 54 54 54 53 52 52 51 52 47 47 46 46 47 50 51 52 51 49 48 47 47 49 49 50 49 52 49 50 51 50 52 53 52 53 49 48 50 45 47 46 45 45 48 52 52 51 48 49 48 47 43 42 39 37 40 37 37 39 41 40 40 40 40 41 40 40
60 61 61 61 60 61 61 62 62 62 61 59 60 59 59 58 57 57 54 53 53 52 52 51 50 48 47 46 46 45 45 46 47 49 49 51 50 50 50 50 48 47 48 47 47 50 50 49 49 49 49 51 50 50 49 49 45 46 46 44 41 47 50 50 51 50 48 47 49 44 45 42 40 42 40 40 41 40 39 40 42 42 41 43 42
60 60 60 59 58 59 59 60 61 61 60 60 60 58 57 58 57 55 55 53 52 52 50 50 50 47 47 47 46 46 46 47 48 49 48 48 49 49 51 51 50 50 48 47 47 48 48 48 50 51 50 50 51 51 51 51 51 50 49 50 46 48 49 48 47 48 49 48 46 47 46 45 45 42 40 40 40 39 42 42 43 40 44 44 43
59 59 59 59 58 59 59 60 59 61 61 60 58 58 58 57 57 56 55 53 51 49 48 49 51 49 49 47 47 48 48 48 48 48 47 49 50 50 50 51 49 50 51 49 50 50 50 49 48 48 48 49 51 52 52 52 51 51 50 50 50 50 49 48 48 46 48 48 45 45 45 43 43 45 40 39 39 39 38 41 43 43 44 46 46
58 58 59 58 58 58 58 60 59 58 58 58 58 57 57 57 56 56 55 55 53 49 49 49 48 49 49 51 49 49 49 49 49 50 49 48 49 50 50 47 49 48 49 49 49 50 50 52 52 52 60 56 50 52 53 53 55 51 52 52 51 51 50 48 47 45 46 46 46 47 45 44 44 45 43 42 41 41 43 44 44 44 43 45 44
58 57 56 56 57 56 57 58 57 57 57 57 57 57 56 56 56 54 53 53 53 53 52 51 47 49 49 50 51 53 53 58 51 47 47 52 49 46 51 51 49 48 49 49 50 50 50 52 53 58 53 53 51 47 46 47 49 55 56 52 51 51 49 48 47 46 47 46 44 45 45 45 44 46 46 46 46 45 44 45 43 43 44 45 46
58 56 55 56 57 56 56 57 57 57 57 56 56 56 56 58 57 56 56 55 56 54 54 52 53 49 49 49 51 56 57 50 40 40 43 45 55 53 50 50 50 49 49 50 50 51 51 49 52 58 56 54 55 46 44 44 44 44 44 46 49 60 51 49 49 49 46 46 45 46 44 45 46 46 46 45 47 46 43 44 44 45 45 44 43
56 56 56 55 56 56 57 57 57 57 57 55 54 55 55 57 58 59 58 58 58 58 57 56 56 56 55 54 58 56 51 43 39 39 40 41 44 57 53 52 52 51 51 51 51 51 52 52 53 55 54 53 53 57 50 44 43 43 42 42 42 42 42 54 53 49 50 48 48 49 48 47 47 47 45 46 46 46 47 47 48 46 47 45 43
51 54 56 56 55 55 54 54 57 57 57 58 58 58 58 57 58 59 58 58 58 58 57 58 58 58 57 54 52 50 48 41 39 40 39 38 40 46 52 54 53 52 52 52 51 51 52 55 57 57 55 59 56 54 55 55 44 42 43 43 42 41 40 40 41 54 53 51 50 50 49 49 48 48 49 49 49 48 47 47 47 47 47 45 43
48 49 50 51 52 53 54 53 53 54 54 55 56 56 56 55 56 57 56 56 56 55 55 56 56 57 54 50 48 47 46 41 39 39 39 39 38 41 55 55 55 53 53 54 55 55 55 56 55 56 58 59 56 54 55 56 56 54 54 53 53 53 40 39 40 38 47 53 53 51 52 52 51 52 52 52 51 50 49 48 48 47 47 46 51
45 46 46 47 49 50 50 50 50 50 51 52 51 51 52 51 52 51 51 51 51 52 52 52 54 55 53 49 47 46 44 39 39 39 39 39 39 39 59 59 57 56 56 56 57 57 57 57 57 55 55 57 58 57 58 58 58 58 57 56 55 55 55 55 53 52 53 53 52 53 54 54 54 55 55 54 54 53 52 51 51 50 51 49 48
44 43 44 43 44 45 47 48 49 47 47 47 48 49 48 47 47 47 48 48 48 47 48 48 50 51 51 49 46 43 43 37 38 39 39 39 39 57 59 59 58 57 58 58 58 57 57 58 57 57 57 57 53 49 51 59 57 58 57 57 57 57 57 53 45 47 56 59 57 57 58 58 45 55 56 56 54 54 52 52 53 52 49 46 43
39 40 41 42 41 42 43 44 44 45 46 46 44 45 46 47 47 46 46 45 46 46 46 46 45 46 47 47 45 43 42 39 38 38 39 38 47 56 57 56 57 58 58 59 58 58 59 58 58 57 60 58 48 44 45 46 56 56 56 57 57 57 56 56 42 39 38 38 38 39 39 40 41 41 42 43 51 51 52 49 48 49 46 44 44
37 37 38 38 39 39 40 40 40 43 42 42 42 43 44 45 47 49 47 47 45 45 45 44 45 45 45 46 46 43 42 40 37 37 37 37 42 53 51 53 55 56 57 58 57 56 57 57 56 57 59 59 38 42 40 50 56 56 57 56 56 56 56 57 54 51 38 38 38 38 38 38 39 39 40 41 42 45 50 48 49 47 45 45 45
36 37 38 37 37 38 39 40 38 38 39 41 42 42 42 43 43 44 44 45 45 45 44 43 43 44 45 46 46 47 44 41 37 37 37 37 43 51 48 48 50 53 52 51 54 54 56 55 51 52 52 46 40 41 39 45 57 56 56 55 54 53 53 53 54 55 53 52 50 49 46 42 47 49 46 40 41 44 50 50 50 46 45 44 45
36 36 37 38 38 39 39 39 39 38 38 39 40 40 40 41 41 41 41 39 41 43 43 43 42 42 43 44 44 46 46 42 39 37 37 36 37 46 47 48 48 49 51 50 50 50 52 54 48 39 39 38 39 38 41 39 52 57 56 54 53 51 52 51 53 53 53 53 53 53 52 51 51 50 48 47 47 49 52 52 49 47 46 44 45
37 36 36 36 36 37 39 40 39 39 39 39 40 40 40 41 41 42 42 40 40 42 41 40 40 41 41 42 42 43 42 44 42 37 37 37 36 39 45 44 43 44 46 48 50 48 50 49 53 39 40 40 40 39 40 39 39 53 55 55 54 54 49 54 55 47 54 53 52 51 52 49 49 48 47 48 46 46 47 49 50 49 47 45 44
37 36 36 36 36 37 38 39 40 41 40 40 39 39 39 39 39 39 38 40 41 41 41 40 40 40 41 42 42 42 41 40 42 38 37 37 36 36 43 44 40 42 42 42 44 45 48 48 50 43 38 38 38 38 38 39 38 46 51 44 43 42 51 53 54 53 52 51 49 48 47 46 45 46 46 44 44 45 46 47 46 46 45 45 43
36 37 36 36 37 37 38 39 39 40 40 40 40 40 40 40 41 41 41 40 40 40 40 39 39 38 38 38 39 40 41 41 38 40 36 36 36 36 35 38 36 45 41 42 42 42 44 46 47 38 37 38 38 38 38 38 38 45 42 41 41 40 41 50 51 52 50 49 49 46 45 46 45 43 43 43 44 44 43 44 45 44 43 42 41
37 36 37 37 37 36 36 37 39 39 39 39 39 40 40 40 38 39 39 39 38 39 37 39 38 38 37 36 38 36 38 37 37 36 38 36 36 36 35 35 35 38 39 39 40 41 42 45 42 37 37 38 37 37 37 37 40 40 40 39 39 38 46 48 50 52 50 48 47 46 45 44 45 43 42 43 42 43 43 43 43 41 39 39 38
36 35 35 34 35 34 37 37 38 38 38 38 38 37 39 39 37 38 39 38 37 37 35 36 36 35 36 38 36 37 38 38 39 39 36 37 36 36 36 36 35 35 40 38 40 41 38 37 37 37 37 37 37 37 37 37 37 37 37 37 39 44 47 49 50 51 50 48 47 47 46 45 44 44 44 43 43 42 40 40 40 40 39 39 38
35 34 34 35 34 34 36 37 37 38 39 37 38 37 38 37 37 36 36 36 36 36 34 33 33 35 35 35 35 36 39 39 39 41 39 38 37 36 36 36 37 36 37 39 37 37 36 36 37 37 37 38 44 45 44 45 39 37 36 37 45 45 47 49 50 50 49 48 46 46 46 44 43 43 43 42 41 41 39 39 40 41 39 36 37
36 35 35 34 35 35 36 36 37 37 38 36 37 37 37 36 37 35 36 35 37 35 35 34 34 34 34 36 36 36 37 37 38 39 37 37 37 37 37 40 37 37 40 41 39 41 41 38 37 38 39 38 39 39 39 39 40 42 42 45 45 47 47 48 49 50 48 47 47 46 46 43 43 43 41 40 40 39 38 37 36 34 35 34 33
35 35 35 35 34 35 35 33 35 36 36 36 36 37 37 37 36 36 36 36 36 36 37 35 34 36 34 35 36 36 35 36 37 37 38 37 37 36 36 37 38 37 37 38 38 38 38 36 38 42 44 45 44 43 44 44 43 42 44 43 44 46 45 44 44 48 49 49 49 48 45 43 41 39 41 39 36 36 37 37 34 33 32 32 31
35 35 34 34 34 34 35 35 35 35 36 37 36 36 36 38 38 38 39 38 36 37 38 38 36 37 36 37 37 37 36 37 39 35 37 35 35 37 38 37 38 37 37 35 38 39 39 37 35 37 35 35 37 39 37 38 39 42 46 45 43 45 46 47 47 47 48 49 46 43 40 41 40 38 37 36 36 34 35 34 34 33 32 33 32
36 36 35 35 34 34 35 35 34 34 35 35 36 37 34 35 36 37 37 35 35 34 34 37 37 36 37 37 38 37 37 37 35 35 35 35 35 35 35 35 35 36 35 34 36 37 37 37 36 34 34 34 34 34 36 37 37 38 39 39 41 42 43 44 45 46 47 45 42 39 40 39 40 40 38 38 37 38 36 35 35 35 33 31 31
35 34 34 34 34 34 34 35 35 34 34 35 36 34 38 35 34 34 35 35 35 34 34 34 34 34 36 37 37 35 35 35 35 35 35 35 35 35 35 35 35 35 35 34 36 36 34 33 33 33 34 36 35 36 36 37 36 38 39 39 40 40 41 43 44 42 41 38 38 37 36 37 37 36 36 36 37 36 37 37 35 35 33 31 31
33 32 33 33 34 33 32 33 34 34 32 32 32 33 33 36 35 34 34 34 34 34 34 34 34 34 34 35 35 37 35 34 34 34 34 35 34 34 34 35 35 35 34 34 35 34 34 34 34 34 34 34 33 34 35 36 36 37 38 37 37 38 40 40 41 41 38 36 35 34 35 35 36 35 35 34 34 37 36 34 34 33 32 30 31
33 33 33 34 34 32 30 32 34 34 34 33 35 34 34 33 30 35 34 34 34 34 34 34 34 34 34 34 34 34 34 34 34 34 34 34 34 34 34 34 35 34 32 34 35 33 34 35 34 34 33 32 34 35 36 38 38 38 38 39 39 40 41 41 37 39 36 35 34 34 33 33 33 33 32 32 32 32 32 31 33 30 33 29 28
34 34 34 35 34 34 33 33 33 34 34 35 35 35 35 36 35 35 32 35 35 34 34 34 34 34 34 34 34 34 34 34 34 34 34 34 34 34 34 37 36 34 34 37 36 34 33 33 33 34 35 36 37 36 36 37 37 37 38 39 39 41 42 41 40 36 34 34 34 33 34 34 33 32 32 32 32 32 31 29 31 29 28 29 29
33 33 32 34 34 33 32 32 33 34 34 35 36 34 37 36 35 34 34 34 34 31 34 36 34 33 34 33 34 34 34 34 34 33 33 33 34 34 34 38 36 37 40 39 38 37 36 36 35 35 37 36 37 38 37 39 36 36 37 38 39 39 39 38 37 39 36 35 35 34 34 34 34 33 32 31 30 28 27 28 29 29 29 28 29
32 32 34 34 34 33 32 33 32 33 33 33 34 33 33 33 33 33 33 32 33 32 32 34 33 34 33 34 33 33 33 33 33 33 33 33 33 34 36 35 36 37 37 38 37 38 38 38 38 38 38 38 38 37 38 37 37 37 37 37 35 37 37 35 34 35 36 35 35 34 33 33 31 30 30 30 30 28 28 29 28 28 29 28 27
28 31 32 32 33 34 34 33 33 33 32 32 31 32 33 33 32 31 32 34 33 32 32 32 34 35 35 35 33 33 33 33 33 33 33 33 34 36 36 36 36 36 37 37 37 37 38 38 38 39 39 39 38 38 38 37 37 37 35 36 36 35 33 32 32 32 32 32 31 32 32 31 30 29 27 27 27 28 28 29 28 27 27 28 28
33 33 32 34 34 35 34 33 31 31 33 30 32 32 31 33 32 31 32 32 32 32 33 32 32 31 32 33 36 34 33 33 33 33 33 33 33 35 35 35 35 34 35 36 36 37 37 38 38 38 37 38 38 37 37 36 35 35 34 34 33 32 32 32 32 33 32 32 31 30 30 30 29 28 28 27 27 27 26 27 27 26 27 28 29
33 33 32 32 32 34 33 33 32 30 32 30 33 32 32 31 32 31 32 32 32 32 31 33 32 32 32 34 34 36 34 33 32 32 32 33 33 34 33 34 34 33 34 34 35 35 36 36 36 37 37 37 36 36 35 35 34 34 34 33 32 31 31 31 31 30 30 30 30 29 29 28 28 27 27 27 27 27 27 29 27 27 25 24 25
30 32 34 32 33 32 32 31 31 31 30 33 32 32 32 31 31 33 31 31 32 32 33 31 31 33 33 34 33 34 31 31 32 32 32 32 32 33 33 33 33 33 33 33 34 34 34 34 35 35 35 35 35 34 34 33 33 32 33 32 31 30 30 30 30 30 31 30 30 30 29 27 26 26 26 26 27 27 27 26 26 26 25 25 26
30 33 32 33 33 33 32 31 31 31 29 32 32 33 33 32 32 31 31 32 33 32 31 32 33 34 33 33 33 33 31 32 33 33 32 32 33 33 33 33 33 32 33 33 33 32 32 33 33 34 34 33 34 34 34 33 33 33 32 32 32 31 31 31 31 31 31 30 29 28 27 27 26 27 27 27 28 27 26 25 25 25 27 27 26
30 30 30 33 34 33 31 29 30 30 32 33 33 33 33 32 32 31 30 31 31 31 31 32 33 33 33 33 33 33 31 32 33 33 33 33 33 33 33 33 33 33 33 33 32 32 32 32 32 33 33 32 32 32 32 32 33 33 32 33 32 32 31 30 30 30 29 28 28 27 28 28 28 28 27 29 26 25 23 23 23 26 26 26 26
31 29 32 31 28 29 27 29 29 29 30 33 33 32 32 32 32 33 31 32 31 31 31 32 33 33 33 33 33 32 32 32 32 33 33 33 33 33 33 33 33 33 33 33 32 32 31 31 32 32 33 33 33 33 33 33 33 33 32 32 31 30 30 29 29 28 28 28 29 30 29 29 28 28 27 27 24 23 24 26 26 25 26 26 27
31 31 32 31 29 28 29 31 29 30 32 33 33 33 32 32 32 32 31 32 32 31 31 32 32 33 33 33 32 31 33 33 33 33 33 33 33 32 33 32 32 32 32 32 32 32 31 31 31 32 33 33 35 35 34 33 33 32 31 31 30 30 30 30 29 29 29 29 29 29 29 29 28 27 26 24 24 24 25 27 25 26 26 25 25
32 31 31 30 30 28 28 29 29 30 32 33 34 33 32 31 31 30 30 31 31 31 31 32 32 31 31 32 31 31 31 31 32 31 31 31 29 30 30 30 31 30 30 30 31 30 31 31 31 31 31 32 33 33 33 33 34 32 32 31 31 31 31 31 31 30 30 30 29 29 29 28 27 25 25 25 24 24 25 26 25 26 25 26 27
29 29 29 29 30 30 27 28 29 30 31 32 32 32 31 31 30 30 30 30 31 31 32 31 32 31 31 30 31 30 30 30 30 29 28 27 27 27 29 29 29 30 30 28 29 30 29 29 29 29 30 30 31 32 33 34 34 34 33 32 31 30 31 31 31 31 30 30 29 29 28 28 27 27 29 27 25 26 26 27 26 26 25 25 26
33 29 31 30 28 30 30 28 28 30 31 31 32 32 31 31 30 30 31 32 31 31 32 31 31 30 30 30 30 29 29 28 28 28 30 30 30 30 29 30 28 28 28 28 29 27 28 28 28 28 29 29 30 31 31 31 31 31 32 31 31 31 31 30 32 31 30 30 29 27 27 27 26 26 27 28 27 27 26 26 26 27 26 25 25
31 30 29 30 30 27 29 28 28 30 30 30 31 31 30 30 30 31 31 32 31 31 31 31 30 30 30 30 29 29 29 29 27 27 27 29 29 29 30 30 28 26 26 26 27 27 27 27 27 27 27 28 29 30 30 30 30 30 30 30 30 30 31 32 30 31 30 29 29 28 27 25 25 25 25 26 28 26 26 25 25 24 25 25 25
30 29 29 30 29 28 27 28 28 27 28 30 29 30 30 30 30 30 31 30 30 31 31 30 30 30 29 31 29 29 29 29 28 27 26 27 28 30 28 30 29 28 26 25 26 27 28 28 28 27 27 27 28 28 30 30 30 30 30 30 30 30 31 31 31 31 32 31 29 30 28 29 28 28 27 28 25 25 24 25 24 24 24 25 25
29 30 30 29 29 30 30 29 28 27 27 29 28 29 28 29 29 30 30 30 30 31 31 31 30 30 29 29 28 28 28 27 26 26 27 29 28 30 29 29 29 28 27 26 25 27 27 27 28 28 28 28 28 29 28 29 29 29 30 29 28 29 29 30 29 29 31 28 29 28 28 28 27 27 26 26 27 26 26 24 24 24 24 24 25
28 28 29 29 28 28 29 30 30 30 30 27 26 28 28 28 31 30 30 31 30 31 32 32 31 30 30 29 28 28 27 27 27 27 28 29 28 28 28 28 27 28 27 27 26 26 27 28 26 26 27 27 27 27 28 27 27 26 26 26 26 26 26 27 28 27 27 29 30 27 25 25 25 25 24 23 24 24 24 24 24 24 23 22 22